User: anonymous   Login
Location: Marcé
(47.5801°N, 0.3280°W)
Time: 07:10:36
(UTC+01:00)
Language:

EO-1 - Orbit

View from above orbital plane
View from above orbital plane
View from above satellite
View from above satellite

Ground track
Ground track

The orbit data is extracted from the following two-line orbital elements,

1 26619U 00075A   22333.88125000  .00000496  00000-0  10118-3 0  9996
2 26619  97.9387 296.1701 0008516 272.7351  87.2878 14.65023316175040
Epoch (UTC): 29 November 2022 21:09:00
Eccentricity: 0.0008516
inclination: 97.9387°
perigee height: 671 km
apogee height: 683 km
right ascension of ascending node: 296.1701°
argument of perigee: 272.7351°
revolutions per day: 14.65023316
mean anomaly at epoch: 87.2878°
orbit number at epoch: 17504

The dashed part of the orbit path shows where the satellite is in the earth's shadow,  

DLR